Flag for U.S.A. Weather past 2 weeks in Eau Claire, Wisconsin, U.S.A.

Now
18 °F

Passing clouds.


Feels Like: 8 °F
Forecast: 6 / 20 °F
Wind: 8 mph from Southwest

Location: Eau Claire County Airport

Current Time: Jan 30, 2015 at 4:21:52 PM

Latest Report: Jan 30, 2015 at 2:56 PM


Visibility: 10 mi

Pressure: 30.45 "Hg

Humidity: 57%

Dew point: 5 °F

Location of Eau ClaireLocation

Historic Weather in Eau Claire — Graph

°F

Eau Claire temperature yesterday

Maximum temperature yesterday: 33 °F (at 10:56 AM)
Minimum temperature yesterday: 12 °F (at 11:56 PM)
Average temperature yesterday: 27 °F

Past Weeks' High & Low Weather Summary

 TemperatureHumidityPressure
High38 °F (Jan 17, 1:56 PM)93% (Jan 19, 10:56 PM)30.58 "Hg (Jan 19, 10:56 PM)
Low4 °F (Jan 30, 5:56 AM)57% (Jan 25, 1:56 PM)29.48 "Hg (Jan 17, 1:56 PM)
Average27 °F76%30.00 "Hg
* Reported Jan 15 2:56 PM — Jan 30 2:56 PM, Eau Claire, Weather by CustomWeather, © 2014

Note: Actual official high and low records may vary slightly from our data, if they occured in-between our weather recording intervals... More about our weather records

Advertising

Eau Claire weather history for previous 24 hours

 ConditionsComfort  
Time TempWeatherWind HumidityBarometerVisibility
2:56 PM
Jan 30
18 °FPassing clouds.8 mph57%30.45 "Hg10 mi
1:56 PM17 °FPassing clouds.8 mph59%30.47 "Hg10 mi
12:56 PM15 °FSunny.5 mph58%30.52 "Hg10 mi
11:56 AM13 °FMostly cloudy.6 mph67%30.54 "Hg10 mi
10:56 AM11 °FOvercast.6 mph70%30.58 "Hg10 mi
9:56 AM10 °FScattered clouds.No wind69%30.58 "Hg10 mi
8:56 AM8 °FPartly sunny.No wind72%30.58 "Hg10 mi
7:56 AM7 °FSunny.No wind73%30.58 "Hg10 mi
6:56 AM6 °FPassing clouds.3 mph76%30.57 "Hg10 mi
5:56 AM4 °FClear.No wind76%30.56 "Hg10 mi
4:56 AM5 °FClear.No wind72%30.56 "Hg10 mi
3:56 AM7 °FClear.6 mph70%30.56 "Hg10 mi
2:56 AM8 °FClear.7 mph69%30.58 "Hg10 mi
1:56 AM9 °FClear.7 mph66%30.56 "Hg10 mi
12:56 AM10 °FClear.7 mph67%30.54 "Hg10 mi
11:56 PM
Jan 29
12 °FClear.7 mph67%30.54 "Hg10 mi
10:56 PM14 °FClear.8 mph61%30.51 "Hg10 mi
9:56 PM16 °FPassing clouds.6 mph62%30.49 "Hg10 mi
8:56 PM19 °FPassing clouds.9 mph59%30.46 "Hg10 mi
7:56 PM21 °FOvercast.12 mph60%30.43 "Hg10 mi
6:56 PM23 °FOvercast.13 mph63%30.40 "Hg10 mi
5:56 PM25 °FOvercast.20 mph60%30.34 "Hg10 mi
4:56 PM27 °FOvercast.18 mph58%30.29 "Hg10 mi
Weather by CustomWeather, © 2014

See weather overviewHow to use our weather pages